User: anonymous   Login
Location: Unspecified
(0.0000°N, 0.0000°E)
Time: 00:10:45
(UTC+00:00)
Language:

STARLINK-11089 [DTC] - Orbit

View from above orbital plane
View from above orbital plane
View from above satellite
View from above satellite

Ground track
Ground track

The orbit is defined by the following mean orbital elements,

1 59426U          26145.11307556 +.00000000 +00000-0 +18813-4 0 00000
2 59426  53.1590  77.3509 0000711 106.8783 253.2313 15.69709134    08
Epoch (UTC): 25 May 2026 02:42:49
Eccentricity: 0.0000711
inclination: 53.1590°
perigee height: 359 km
apogee height: 360 km
right ascension of ascending node: 77.3509°
argument of perigee: 106.8783°
revolutions per day: 15.69709134
mean anomaly at epoch: 253.2313°

The dashed part of the orbit path shows where the satellite is in the earth's shadow,  

DLR